Other Public Products
Issued by NWS Charleston, SC

Home | Current Version | Previous Version | Text Only | Print | Product List | Glossary On
Versions: 1 2 3 4 5 6 7 8 9 10 11 12 13 14 15 16 17 18 19 20 21 22 23 24 25 26 27 28 29 30 31 32 33 34 35 36 37 38 39 40 41 42 43 44 45 46 47 48 49 50
000
FPUS82 KCHS 220012
OPUCHS

TEST...KCHS/KSAV Gateway Observations...TEST
National Weather Service Charleston SC
700 PM EST THU FEB 21 2019

NOTE: "fair" indicates few or no clouds below 12,000 feet with no
significant weather and/or obstructions to visibility.

SCZ050-WAZ558-NCZ071-TXZ119-213-PAZ071-DCZ001-FLZ074-172-MI076-
NYZ176-178-MAZ016-IL014-TNZ027-NJZ106-GAZ044-MD014-220100-

...Gateway Observations for Charleston International...

CITY           SKY/WX    TMP DP  RH WIND       PRES   REMARKS
Chas Airport   FAIR      69  65  86 S8        30.10R
6HR MIN TEMP:  69; 6HR MAX TEMP:  82;

Seattle        MOSUNNY   45  26  47 W6        30.11S
6HR MIN TEMP:  41; 6HR MAX TEMP:  47;

Charlotte      MOCLDY    59  55  87 S7        30.11R
6HR MIN TEMP:  59; 6HR MAX TEMP:  64;

Dallas DFW     CLOUDY    49  38  65 E8        29.94S
6HR MIN TEMP:  48; 6HR MAX TEMP:  52;

Dallas Love    CLOUDY    50  39  66 E10       29.96S
6HR MIN TEMP:  50; 6HR MAX TEMP:  52;

Philladelphia  MOCLDY    47  33  58 W10       30.09R
6HR MIN TEMP:  47; 6HR MAX TEMP:  52;

Wash National  MOCLDY    56  25  30 N5        30.13R
6HR MIN TEMP:  46; 6HR MAX TEMP:  60;

Baltimore      CLOUDY    49  33  54 CALM      30.10R
6HR MIN TEMP:  49; 6HR MAX TEMP:  57;

Miami          FAIR      77  69  76 SE9       30.10S
6HR MIN TEMP:  77; 6HR MAX TEMP:  83;

Detroit        CLOUDY    36  20  52 W8        30.20R WCI  30
6HR MIN TEMP:  36; 6HR MAX TEMP:  40;

Newark         FAIR      48  31  51 W12       30.04R
6HR MIN TEMP:  47; 6HR MAX TEMP:  52;

Laguardia      FAIR      48  31  51 W5        30.03R
6HR MIN TEMP:  47; 6HR MAX TEMP:  52;

J F K          MOCLDY    48  33  56 W15       30.05R
6HR MIN TEMP:  47; 6HR MAX TEMP:  51;

Boston Logan   NOT AVBL
Ft. Lauderdale FAIR      78  71  79 SE13      30.09S
6HR MIN TEMP:  78; 6HR MAX TEMP:  83;

Chicago O`Hare CLOUDY    30  18  60 W7        30.26R WCI  23
6HR MIN TEMP:  30; 6HR MAX TEMP:  33;

Chicago Midway CLOUDY    31  18  58 W10       30.27R WCI  22
6HR MIN TEMP:  31; 6HR MAX TEMP:  35;

Houston Bush   DRIZZLE   51  51 100 NE9       29.91S FOG
6HR MIN TEMP:  51; 6HR MAX TEMP:  54; 6HR PCP:  0.01;

Houston Hobby  DRIZZLE   53  51  93 N13       29.88F FOG
6HR MIN TEMP:  53; 6HR MAX TEMP:  54; 6HR PCP:  0.01;

Nashville      LGT RAIN  47  42  83 NE10      30.17R
6HR MIN TEMP:  47; 6HR MAX TEMP:  54; 6HR PCP:  0.13;

Atlanta        LGT RAIN  63  59  87 E6        30.08R FOG
6HR MIN TEMP:  55; 6HR MAX TEMP:  65; 6HR PCP:  0.01;


$$

GAZ044-118-TXZ119-213-NCZ071-DCZ001-MDZ014-506-PAZ021-071-NJZ106-
NYZ176-178-MAZ106-OHZ011-021-055-MIZ076-KYZ091-ILZ014-INZ047-
MNZ060-ONZ431-220100-

...Gateway Observations for Savannah International...

CITY           SKY/WX    TMP DP  RH WIND       PRES   REMARKS
Savannah Arpt  FAIR      72  67  84 SE8       30.10R
6HR MIN TEMP:  72; 6HR MAX TEMP:  83;

Atlanta        LGT RAIN  63  59  87 E6        30.08R FOG
6HR MIN TEMP:  55; 6HR MAX TEMP:  65; 6HR PCP:  0.01;

Charlotte      MOCLDY    59  55  87 S7        30.11R
6HR MIN TEMP:  59; 6HR MAX TEMP:  64;

Dallas DFW     CLOUDY    49  38  65 E8        29.94S
6HR MIN TEMP:  48; 6HR MAX TEMP:  52;

Houston Bush   DRIZZLE   51  51 100 NE9       29.91S FOG
6HR MIN TEMP:  51; 6HR MAX TEMP:  54; 6HR PCP:  0.01;

Wash National  MOCLDY    56  25  30 N5        30.13R
6HR MIN TEMP:  46; 6HR MAX TEMP:  60;

Wash Dulles    FAIR      48  28  46 VRB3      30.13R
6HR MIN TEMP:  41; 6HR MAX TEMP:  54;

Baltimore      CLOUDY    49  33  54 CALM      30.10R
6HR MIN TEMP:  49; 6HR MAX TEMP:  57;

Philadelphia   MOCLDY    47  33  58 W10       30.09R
6HR MIN TEMP:  47; 6HR MAX TEMP:  52;

Newark         FAIR      48  31  51 W12       30.04R
6HR MIN TEMP:  47; 6HR MAX TEMP:  52;

Laguardia      FAIR      48  31  51 W5        30.03R
6HR MIN TEMP:  47; 6HR MAX TEMP:  52;

J F K          MOCLDY    48  33  56 W15       30.05R
6HR MIN TEMP:  47; 6HR MAX TEMP:  51;

Boston         NOT AVBL
Pittsburg      CLOUDY    40  22  48 W6        30.19R WCI  36
6HR MIN TEMP:  40; 6HR MAX TEMP:  46;

Akron          CLOUDY    38  25  59 W8        30.19S WCI  32
6HR MIN TEMP:  38; 6HR MAX TEMP:  43;

Cleveland      MOCLDY    38  26  62 W13       30.24R WCI  30
6HR MIN TEMP:  38; 6HR MAX TEMP:  43;

Cincinnati     CLOUDY    42  27  55 NW8       30.23R
6HR MIN TEMP:  42; 6HR MAX TEMP:  49;

Columbus       FAIR      39  23  53 NW3       30.23S
Detroit        CLOUDY    36  20  52 W8        30.20R WCI  30
6HR MIN TEMP:  36; 6HR MAX TEMP:  40;

Chicago O`Hare CLOUDY    30  18  60 W7        30.26R WCI  23
6HR MIN TEMP:  30; 6HR MAX TEMP:  33;

Minneapolis    FAIR      17  12  80 SW6       30.25R WCI   9
6HR MIN TEMP:  14; 6HR MAX TEMP:  21; 6HR PCP: TRACE;

Indianapolis   CLOUDY    38  28  67 NW10      30.25R WCI  31
6HR MIN TEMP:  37; 6HR MAX TEMP:  43;

Toronto Canada PTCLDY    32  19  59 W17       30.14R WCI  21

$$



USA.gov is the U.S. government's official web portal to all federal, state and local government web resources and services.